Theta_e
302 303 303 302 303 303 303 303 303 303 303 303 303 303 303 303 303 303 304 303 303 303 302 302 303 304 305 306 307 307 306 306 307 307 308 310 311 310 307 308 308 309 309 308 312 313 311 311 312 313 312 310 311 312 313 314 315 314 318 320 317 316 315 316 318 315 314 314 313 312 311 313 313 313 326 343 346 344 345 344 344 344 343 343 343 344 347 348
302 302 302 302 302 303 302 303 303 303 303 303 303 303 303 303 303 303 304 304 304 304 303 302 302 303 303 304 305 305 305 306 306 307 310 313 314 313 310 308 308 308 309 308 310 311 311 311 311 312 312 310 311 313 313 314 316 316 316 317 317 317 314 312 314 313 311 313 312 312 312 312 314 312 317 341 347 343 346 346 344 345 345 345 345 346 347 347
302 302 302 302 302 302 302 303 303 302 303 303 302 303 303 303 303 303 303 304 305 305 304 303 303 302 302 303 303 304 305 305 307 311 314 315 314 313 312 310 308 307 309 309 309 310 311 310 310 311 310 311 312 313 314 315 316 316 315 318 317 315 313 311 311 312 312 313 311 311 312 311 314 313 318 340 347 345 346 346 345 346 346 346 347 347 347 347
301 302 302 302 302 302 302 302 302 302 302 303 303 303 302 303 303 303 303 304 304 305 305 304 303 303 302 302 302 304 304 305 313 315 315 315 313 312 312 312 309 308 309 309 309 310 310 309 309 310 310 312 313 314 315 315 316 315 316 320 316 311 313 314 312 314 314 313 312 311 312 312 313 315 324 340 346 349 346 343 344 344 345 346 346 348 347 347
301 301 301 301 301 301 302 301 302 302 302 302 302 302 302 302 302 303 303 303 304 305 305 304 304 303 303 302 302 303 303 308 317 316 315 315 313 312 311 311 309 308 309 309 309 309 309 308 308 310 310 312 314 314 315 315 315 315 316 316 314 312 314 314 314 315 315 314 312 311 312 313 313 314 320 333 344 347 342 340 342 341 342 343 345 347 347 346
300 300 300 301 301 301 301 301 301 301 302 302 302 302 302 302 302 302 302 302 303 303 305 305 304 303 303 302 302 302 303 308 314 313 313 314 313 312 310 310 309 309 310 310 309 308 308 308 309 311 311 312 314 315 315 315 314 316 317 314 313 314 313 314 315 316 316 313 311 311 313 312 312 312 313 323 333 335 334 338 340 341 342 341 343 346 346 346
300 300 300 300 300 300 300 300 301 301 301 301 301 302 301 302 302 302 302 302 302 302 304 305 304 304 303 303 302 303 304 306 308 309 312 313 313 313 310 310 309 309 309 310 309 307 308 309 309 311 312 313 313 314 315 315 314 316 318 315 315 315 313 316 316 316 315 312 311 312 312 310 311 312 314 320 322 325 333 338 338 341 344 344 345 346 344 342
300 300 300 300 300 300 300 300 301 301 301 301 301 301 301 301 301 302 302 302 302 302 302 304 305 305 304 303 302 303 304 305 306 308 313 314 314 314 312 312 310 310 309 309 310 307 308 310 310 311 312 313 313 314 314 314 314 316 317 314 314 315 315 316 315 314 314 313 312 312 311 311 311 311 314 316 318 326 334 338 339 342 344 346 346 346 344 340
300 300 299 300 299 300 300 300 300 300 300 300 300 301 300 301 301 301 302 302 302 302 302 302 303 305 305 305 304 304 304 306 310 312 315 316 315 314 313 313 312 311 310 310 309 307 308 310 310 310 311 312 312 314 313 315 316 315 315 314 314 315 315 315 314 313 313 312 311 311 311 311 311 314 317 319 322 330 337 339 342 344 345 347 347 346 343 339
299 299 299 299 299 299 299 299 300 300 300 300 300 300 300 301 301 301 301 302 302 301 302 302 302 304 304 306 305 306 305 306 311 315 317 316 315 313 312 312 312 312 310 310 309 307 307 309 310 311 312 312 312 313 313 314 316 314 314 313 314 313 312 312 311 312 312 311 311 311 313 311 311 317 321 324 330 335 339 343 344 345 346 347 347 347 342 338
299 299 299 299 299 299 299 299 299 299 300 299 300 300 300 300 300 301 301 301 301 301 302 302 302 302 303 305 305 306 306 305 309 313 316 316 314 312 312 311 312 312 311 310 309 308 307 308 311 311 313 313 312 312 312 313 314 314 313 311 312 310 310 310 309 312 311 312 313 311 312 311 311 315 317 321 336 341 341 344 346 345 347 347 347 346 342 339
299 298 299 299 299 299 299 299 299 299 299 299 299 299 300 300 300 300 301 301 301 301 302 302 302 302 302 303 305 307 307 306 308 310 314 315 313 312 312 312 312 312 312 311 310 308 307 309 312 312 313 313 313 312 311 313 312 312 311 311 313 312 312 311 310 312 311 312 313 312 313 314 314 313 314 323 339 345 343 344 346 345 346 347 347 346 343 341
298 298 299 298 299 299 299 299 299 299 299 299 299 299 300 299 299 300 301 301 301 301 301 301 302 301 302 303 305 306 307 307 307 310 313 315 315 314 313 313 313 312 311 311 311 309 307 308 312 313 313 313 314 313 312 312 311 312 311 310 313 314 315 311 309 310 309 312 312 312 314 319 322 313 317 334 340 344 344 344 346 345 345 346 347 345 344 343
298 298 298 298 299 298 299 299 299 299 299 299 299 299 299 299 299 300 301 301 301 301 301 301 301 302 303 304 305 306 306 307 307 309 313 316 315 315 315 315 314 313 312 310 310 309 307 308 311 313 313 313 314 313 313 312 311 313 311 312 313 312 318 315 309 311 311 313 312 313 313 318 322 310 320 343 342 343 344 343 346 344 344 345 346 345 344 345
298 298 298 298 298 298 299 299 299 299 299 299 299 299 299 299 300 300 301 301 301 301 301 301 301 303 304 305 305 308 309 310 310 310 311 315 316 315 315 316 316 314 313 311 309 309 307 307 309 312 312 313 313 312 314 314 315 316 311 314 316 311 317 317 311 311 312 313 311 313 315 317 319 310 324 346 344 344 343 343 346 343 345 346 345 345 344 345
298 298 298 298 298 299 299 299 299 299 299 299 299 299 299 299 300 300 301 301 301 301 301 302 304 306 307 309 310 311 312 314 314 313 311 313 316 317 315 315 316 315 314 312 309 309 309 308 308 310 311 312 313 311 313 316 318 320 313 314 318 313 314 316 312 310 309 312 312 312 315 318 318 310 325 346 344 343 342 342 346 343 345 346 345 346 345 345
298 298 298 298 298 298 298 298 298 299 299 299 299 299 299 300 301 302 303 303 302 301 302 305 309 309 309 309 310 311 314 315 315 315 314 312 314 315 314 315 316 315 314 312 311 309 309 309 310 313 313 312 314 314 315 315 317 321 316 314 317 315 314 314 315 311 308 312 313 313 314 317 318 311 323 345 344 342 342 342 344 342 344 345 344 345 345 344
298 298 298 298 298 298 298 298 298 299 298 299 299 299 300 303 305 306 307 307 306 305 305 307 308 309 309 309 309 312 315 315 313 314 315 314 313 312 313 314 315 316 314 312 312 311 310 310 311 316 316 311 313 314 316 318 318 317 315 314 318 316 314 314 315 313 311 313 313 313 314 316 319 313 319 338 345 341 341 342 343 342 343 344 343 343 344 342
298 298 298 298 298 297 298 298 298 298 298 299 299 299 303 305 306 309 311 310 308 309 311 311 308 308 310 310 310 313 314 313 312 313 314 315 313 311 312 312 314 315 313 314 313 310 311 311 311 315 315 313 314 314 315 318 317 314 314 317 318 315 313 312 313 313 311 312 314 314 315 316 318 315 314 327 342 341 339 342 341 340 342 342 342 342 342 341
297 298 298 298 297 297 298 298 298 298 299 299 299 302 305 305 306 310 310 308 308 309 310 310 309 309 311 312 312 314 313 312 312 313 315 316 314 312 312 312 314 314 314 317 316 310 311 314 314 314 314 317 321 318 315 315 313 312 314 315 314 313 311 311 312 313 310 312 319 318 316 317 317 318 312 316 334 338 337 341 340 339 341 341 341 340 341 341
297 297 297 297 297 298 298 298 298 298 298 299 299 304 306 304 307 308 307 308 308 308 307 307 308 308 309 310 311 312 311 311 311 313 314 315 315 313 313 313 315 317 314 314 314 311 312 315 315 315 319 325 327 323 316 313 312 311 312 312 312 312 311 310 310 313 311 313 322 319 315 318 318 318 313 314 331 337 335 340 340 339 340 340 340 340 340 340
296 297 297 297 298 298 298 298 298 298 299 298 299 304 306 304 307 308 307 308 309 308 309 308 308 308 307 307 308 309 309 310 310 311 312 313 315 314 313 315 317 320 315 312 314 313 313 315 314 314 319 323 324 323 317 313 313 313 312 313 313 313 312 313 313 315 314 314 321 320 315 319 319 317 315 316 328 333 334 339 339 339 340 339 339 339 340 340
296 297 297 297 298 298 298 298 298 298 298 298 300 305 306 304 308 310 309 309 309 309 308 309 309 308 307 307 308 308 309 310 309 310 312 313 315 314 313 314 316 318 315 315 317 316 316 317 313 312 315 316 316 319 318 313 314 315 314 313 314 314 312 315 317 318 317 315 318 317 316 320 321 325 328 322 321 326 331 337 338 338 339 338 338 338 339 339
296 297 297 297 298 298 298 298 298 299 299 299 302 304 305 305 308 310 310 310 311 310 309 309 309 308 309 308 308 309 309 309 309 309 312 314 314 313 313 313 315 315 314 316 317 316 317 314 311 312 315 314 313 315 316 313 315 319 318 314 313 314 313 314 316 317 320 322 319 314 318 326 324 330 337 328 323 326 331 336 337 337 338 337 337 337 338 338
296 297 297 297 298 298 298 298 299 300 300 301 302 304 305 305 306 309 310 311 312 311 310 310 310 310 309 309 309 309 309 310 310 309 311 313 314 313 312 312 314 314 314 315 314 315 316 311 310 314 315 313 312 315 316 315 315 319 320 316 314 314 315 314 314 314 319 325 321 313 320 329 325 327 333 329 328 330 331 335 336 337 337 337 337 337 337 338
296 297 297 297 298 298 298 300 300 300 300 300 302 305 305 305 308 309 310 314 317 314 312 311 310 311 310 310 310 309 310 311 309 309 310 313 314 314 313 312 312 314 313 313 313 314 314 311 311 315 316 314 313 315 317 315 313 314 319 320 315 313 314 315 314 315 320 324 318 314 319 324 325 329 329 328 330 331 330 333 336 336 336 337 337 337 337 337
297 297 297 297 297 298 299 300 299 299 301 304 305 306 306 306 308 308 309 315 318 315 313 311 310 311 310 310 310 309 310 311 310 310 310 312 314 314 314 313 312 312 310 312 315 315 312 312 312 314 315 315 313 314 315 314 313 316 322 323 316 313 314 315 314 315 321 323 319 320 320 318 323 327 326 329 332 331 331 332 334 335 335 336 336 336 336 337
297 297 297 297 297 298 299 299 299 300 303 307 307 306 307 307 307 310 312 311 310 312 314 312 310 310 310 311 311 310 311 312 312 312 310 312 314 313 314 314 314 314 311 313 318 315 312 314 314 313 313 313 314 315 315 312 312 317 323 320 315 315 316 315 315 318 319 318 317 322 318 316 326 328 323 328 333 333 333 331 332 334 334 335 334 334 336 336
297 297 297 297 298 298 298 299 299 299 302 306 307 306 307 306 307 312 314 310 309 311 312 311 310 309 311 312 311 310 311 312 313 312 311 312 313 313 313 312 312 313 310 312 317 315 313 313 312 313 314 313 314 316 315 313 312 316 319 316 314 318 319 316 317 318 316 315 315 320 318 316 327 332 326 330 334 333 333 331 331 333 333 333 333 334 335 335
297 297 297 298 299 299 299 299 299 299 301 305 307 306 305 308 313 314 312 311 312 311 309 309 308 308 310 312 312 312 311 311 312 312 311 312 313 313 313 311 311 315 313 311 314 314 312 310 309 312 313 313 314 313 311 312 312 313 315 315 314 318 321 322 325 321 315 317 317 317 320 317 322 332 331 332 333 331 331 332 331 332 332 332 333 334 334 333
297 297 298 299 299 299 299 299 300 300 301 305 307 305 305 309 315 316 313 310 311 310 309 308 307 307 307 309 312 313 311 311 312 312 312 313 313 312 313 313 312 316 316 312 313 314 312 310 312 314 311 310 312 311 310 310 310 313 317 317 316 320 320 321 327 322 314 321 322 318 318 318 320 326 327 327 328 328 331 332 330 331 332 331 332 333 332 332
297 298 299 300 299 299 300 301 302 300 301 305 305 304 309 310 310 314 315 312 310 310 308 307 306 306 304 307 311 313 312 312 312 312 313 313 314 314 314 317 316 315 317 317 317 316 315 314 313 313 312 311 311 313 312 310 310 313 317 317 317 319 318 318 323 321 318 322 322 320 318 318 323 325 325 326 327 326 327 328 329 330 331 331 331 331 331 330
298 299 300 301 300 301 303 305 305 301 301 306 305 305 312 312 310 312 313 311 309 308 306 306 306 305 305 308 312 312 311 312 313 313 313 313 315 314 313 317 318 317 319 319 316 315 318 318 313 312 313 312 312 314 314 314 313 312 315 317 318 318 318 321 323 320 319 320 317 318 316 318 326 325 324 326 325 323 323 325 329 330 330 330 329 330 329 328
299 301 301 301 302 304 306 306 304 302 302 305 306 307 309 308 310 312 310 310 310 306 305 306 305 305 308 310 312 313 312 314 314 313 314 314 315 315 315 314 314 317 320 317 314 316 319 319 317 314 313 312 312 313 314 316 314 312 314 315 317 322 322 322 325 321 318 320 320 318 316 319 329 327 324 326 324 324 324 325 329 329 329 330 329 328 328 328
301 305 303 302 306 308 308 305 302 300 302 305 307 307 308 308 309 310 309 309 308 306 305 305 304 308 313 313 311 311 313 316 316 314 315 315 316 318 317 313 313 316 318 318 316 315 314 317 320 315 310 311 313 313 313 315 314 312 314 314 314 321 324 321 322 322 321 323 321 321 321 324 329 326 323 325 325 325 326 326 328 328 328 329 328 327 327 328
306 308 304 305 309 308 305 302 299 299 302 307 308 306 309 310 305 307 309 306 305 305 305 307 307 309 313 314 312 310 311 317 320 317 316 315 315 317 317 314 314 314 316 320 320 315 313 317 320 315 311 313 313 313 313 313 317 315 312 316 316 316 322 323 318 317 320 321 318 322 330 331 329 326 322 324 326 325 327 326 325 327 328 328 328 328 328 328
309 310 307 309 311 307 305 301 298 300 302 307 309 308 310 309 303 306 308 305 306 305 304 308 310 309 308 311 312 310 310 318 321 318 317 317 316 318 320 317 313 313 314 317 319 318 315 317 320 315 314 315 310 310 313 311 314 318 316 317 316 312 319 325 324 323 322 321 321 325 333 335 333 329 324 324 326 325 326 327 326 326 327 327 328 328 328 329
310 311 310 312 311 307 307 304 300 301 302 306 313 312 309 307 303 305 306 305 307 306 304 307 310 309 307 308 312 311 311 317 321 320 320 319 317 318 323 321 315 313 312 311 315 318 314 316 323 318 312 315 313 311 314 312 310 317 319 316 316 318 320 320 323 327 321 320 324 325 326 330 331 328 325 325 326 324 326 328 327 327 326 326 327 327 328 330
311 312 311 312 311 308 309 308 304 304 303 304 311 310 305 306 306 305 307 307 306 306 307 307 308 309 309 309 311 312 313 317 320 321 320 318 317 317 320 321 317 314 311 309 315 319 314 314 323 321 311 313 317 316 320 319 312 312 314 313 318 327 325 319 320 324 322 322 325 325 327 330 328 324 323 325 323 323 325 327 328 327 326 325 326 327 327 329
312 313 313 312 312 310 310 310 309 309 307 305 308 309 305 307 309 307 309 309 307 308 310 309 307 308 310 310 309 310 313 320 323 321 319 318 319 317 317 319 319 316 313 312 317 322 317 313 320 326 317 314 319 319 320 322 316 313 316 316 318 320 319 318 319 319 323 328 326 327 333 332 325 322 323 324 322 322 324 326 326 325 325 325 326 327 327 327
312 314 314 312 312 311 311 313 311 311 312 309 309 311 309 310 311 309 310 309 309 310 310 309 309 309 310 310 311 310 312 319 322 320 319 319 319 319 317 317 318 317 316 318 321 322 320 317 320 326 323 319 322 320 316 317 316 316 319 321 321 320 319 321 320 317 322 328 326 329 337 332 324 322 323 323 323 323 322 323 323 323 323 323 324 325 326 327
313 314 314 312 313 312 312 314 310 308 313 314 311 310 310 311 311 310 310 309 309 310 308 308 309 310 310 309 310 311 310 314 318 318 319 319 319 318 317 315 316 317 321 322 320 319 322 324 323 322 321 320 319 317 315 314 315 316 319 322 323 324 324 326 326 322 320 320 320 327 335 331 323 322 323 323 323 322 322 322 322 321 321 322 322 323 324 325
313 314 313 313 314 312 312 313 311 310 313 313 310 309 309 309 310 310 310 309 310 309 308 309 309 309 310 308 309 310 310 312 316 317 318 319 318 316 315 315 316 318 322 324 320 319 322 324 322 323 327 327 323 320 317 316 319 321 321 322 320 322 327 330 330 329 327 324 323 327 331 329 324 323 323 322 322 322 322 322 321 320 321 322 322 323 323 324
313 313 313 313 313 312 312 313 311 312 314 311 310 311 309 308 309 310 310 310 310 310 310 310 309 308 310 310 309 311 312 313 315 314 315 318 318 316 314 315 316 318 322 322 321 321 321 321 321 322 324 326 326 327 323 322 325 324 322 323 320 318 322 324 323 327 328 324 323 328 331 328 324 322 321 321 322 322 321 320 319 319 319 319 320 321 322 322
313 312 312 313 313 313 312 311 309 311 313 312 312 312 309 309 309 308 309 309 309 309 309 310 309 308 310 312 312 313 312 313 316 315 315 316 316 315 315 316 318 322 323 320 318 321 323 321 321 322 323 323 326 327 323 321 324 322 321 323 320 318 319 318 320 325 323 318 321 330 331 326 323 322 321 321 321 321 318 316 315 315 314 315 317 319 320 321
312 312 311 310 310 310 309 309 308 310 312 312 311 309 309 311 309 307 308 309 308 307 308 308 308 308 310 313 316 316 313 313 316 316 315 316 316 315 314 317 320 322 323 317 314 321 323 319 318 322 324 323 323 321 317 316 321 323 324 322 318 316 319 321 323 324 322 321 323 326 325 324 326 324 322 321 318 317 314 313 312 312 311 312 313 315 317 319
309 310 309 307 307 308 308 307 307 309 309 309 310 308 308 310 310 308 309 309 308 307 307 307 307 308 310 312 316 316 314 314 315 314 313 314 316 316 313 314 317 319 320 317 314 322 326 319 316 318 318 316 317 316 315 316 319 318 318 318 315 314 319 327 325 319 320 326 325 321 321 326 326 322 320 318 314 312 311 310 310 310 310 310 310 311 314 315
308 308 307 306 307 307 308 306 307 309 309 308 308 309 309 311 310 310 309 309 308 307 308 310 308 307 307 308 312 313 313 315 314 313 313 311 314 317 316 315 316 315 318 319 316 322 327 320 316 316 316 315 315 316 315 316 315 312 311 313 314 314 319 326 323 316 319 328 327 322 323 323 319 316 314 312 311 310 309 308 308 308 308 308 309 310 311 312
307 308 307 307 306 306 307 306 305 308 310 309 309 309 310 311 310 308 308 310 311 309 307 308 309 308 307 309 312 311 309 312 312 311 310 309 312 316 316 317 316 312 319 325 319 318 322 320 316 316 317 316 315 316 316 316 315 312 310 310 312 315 316 318 318 315 319 325 324 321 319 316 313 312 310 309 309 308 307 307 308 308 307 307 308 309 309 310
308 308 307 308 307 305 306 306 304 308 310 308 308 308 309 311 309 308 308 309 311 311 307 307 308 307 308 310 312 309 306 308 309 309 308 308 311 313 312 316 316 311 318 326 320 317 320 318 316 317 319 317 315 315 316 317 317 316 312 310 312 315 316 317 317 317 318 320 319 317 316 313 310 310 309 308 308 307 307 307 307 307 307 307 307 307 308 309
308 308 307 309 308 305 305 303 303 310 312 307 307 309 310 311 308 307 309 308 308 310 308 307 308 308 309 310 309 306 304 305 306 307 308 307 308 309 309 311 311 310 317 324 321 320 321 316 313 317 321 318 314 314 317 318 319 319 316 312 311 314 315 316 314 314 316 318 318 318 318 313 309 309 308 307 307 307 307 306 307 307 307 306 306 306 307 308
308 308 307 308 307 303 303 304 304 309 309 304 306 309 309 309 305 305 309 308 306 307 306 305 305 306 309 309 307 304 303 303 304 304 305 305 305 306 306 306 306 307 313 321 321 320 320 318 316 318 320 318 314 315 317 319 321 321 315 310 310 312 313 314 313 312 314 316 317 318 317 311 308 308 307 306 306 306 305 305 306 306 306 306 306 305 305 306
Wind_Speed
9 9 8 9 9 9 9 10 10 10 10 10 11 11 11 11 11 11 11 11 12 13 14 14 15 16 16 17 19 20 21 21 21 22 20 10 6 9 8 5 6 9 10 12 13 13 14 14 15 15 14 12 10 13 12 9 10 6 2 3 3 4 4 4 6 5 3 4 7 13 17 7 9 16 11 4 4 5 4 4 8 11 6 8 13 16 29 28
9 9 9 10 10 10 10 10 10 10 11 11 11 12 12 12 12 12 12 12 12 12 13 14 15 15 17 17 18 21 21 22 23 19 10 3 3 6 8 7 6 9 11 12 12 12 13 14 16 16 14 11 9 12 12 9 9 5 3 2 5 4 5 5 5 3 3 6 10 15 15 10 12 16 12 4 1 2 2 3 6 7 6 12 14 21 30 28
10 10 10 10 11 11 11 11 11 11 11 11 12 12 13 13 13 13 13 13 12 13 13 14 14 15 16 16 18 19 20 23 19 7 3 3 4 4 6 9 8 8 9 10 10 10 10 11 14 15 14 10 8 12 11 9 8 5 4 2 7 5 4 5 5 7 9 11 10 13 15 14 16 15 10 3 1 2 3 3 6 9 13 16 19 26 31 30
10 11 11 11 12 11 12 12 12 12 12 12 12 13 13 13 13 13 14 13 13 13 13 14 14 15 15 16 17 17 19 19 8 5 4 4 5 5 3 6 8 6 9 10 9 10 8 8 12 15 13 7 7 10 9 9 8 4 5 4 5 3 3 6 6 9 14 15 9 12 15 15 17 14 7 1 1 4 8 13 10 12 19 21 24 31 32 32
10 11 11 12 12 12 13 13 13 13 13 13 13 13 14 14 13 14 14 14 14 14 14 14 14 14 14 15 15 15 15 9 2 4 3 3 6 6 3 4 7 7 10 12 11 12 10 9 12 14 10 4 6 7 4 10 9 2 6 10 6 2 4 6 9 13 17 18 12 10 10 13 16 14 10 4 4 6 7 14 14 14 20 21 24 31 33 32
10 11 11 12 12 13 13 13 14 14 14 14 14 14 14 14 14 14 14 14 14 14 15 15 14 14 14 14 14 13 9 2 2 4 5 5 5 4 2 3 7 7 10 11 12 13 11 12 14 12 7 3 5 4 3 10 9 2 7 10 9 8 6 9 15 18 20 15 10 9 11 15 14 14 15 10 11 14 10 10 12 15 18 18 22 29 29 23
11 11 11 12 13 13 14 14 14 14 14 15 15 15 15 15 15 14 14 14 14 14 15 15 15 14 13 13 13 11 9 9 7 6 7 5 2 2 3 4 6 7 9 10 11 14 14 15 15 11 6 3 3 5 4 6 6 5 6 5 7 9 9 14 19 20 21 16 15 16 15 15 10 10 12 10 15 19 15 10 9 15 18 19 21 23 21 14
11 11 12 12 13 13 14 14 14 14 14 15 15 15 15 15 15 15 14 14 14 14 14 15 14 14 14 13 11 10 12 12 6 5 7 4 3 3 3 4 5 5 7 9 10 13 15 16 15 11 5 2 5 6 5 3 2 6 7 6 7 10 12 16 18 20 23 20 19 15 12 15 12 9 9 12 17 16 14 10 9 17 20 20 22 21 20 16
11 12 12 13 14 14 14 15 15 15 14 14 15 15 15 15 15 15 15 14 14 14 14 14 14 15 14 12 10 9 10 7 4 5 5 4 5 3 4 4 3 4 6 8 9 12 15 17 17 12 5 4 6 4 5 4 3 6 8 8 8 11 14 16 16 19 22 19 14 7 11 15 10 6 8 12 14 11 10 8 12 19 22 21 23 23 20 15
11 12 12 13 14 14 15 15 15 15 14 15 15 15 15 15 15 15 15 15 14 14 14 14 14 14 13 12 6 3 6 5 4 4 2 5 5 4 4 4 2 3 5 7 9 13 15 16 17 11 3 4 6 3 5 6 5 5 8 9 10 13 15 13 12 18 19 16 13 7 10 10 3 0 5 9 10 9 9 10 15 21 24 23 24 25 18 11
12 12 13 13 14 15 15 15 16 16 15 15 15 15 15 15 15 15 16 16 15 14 14 14 14 14 14 11 6 4 7 7 5 4 2 5 5 3 3 4 4 4 5 7 7 11 14 13 15 10 1 3 3 2 4 5 7 7 8 8 10 11 12 9 10 17 12 10 13 8 7 6 1 3 6 9 8 9 11 14 17 22 23 24 25 24 19 12
13 14 14 14 15 16 16 16 17 16 16 15 15 16 15 15 15 15 16 16 16 14 14 15 14 15 14 14 14 8 7 8 8 8 6 6 5 3 3 5 5 5 5 6 7 8 12 12 13 11 3 3 2 1 2 5 5 8 7 4 8 7 7 7 8 12 5 5 10 3 4 7 1 6 7 7 10 11 12 16 20 22 22 23 25 25 20 13
15 15 15 15 16 17 17 17 17 17 17 16 16 16 16 15 15 16 16 16 16 14 15 15 14 16 15 15 15 8 8 12 13 12 8 6 7 6 5 6 6 5 5 6 6 6 9 12 13 11 3 2 2 2 4 7 5 6 3 1 5 7 6 6 3 5 2 6 8 3 2 7 7 8 5 10 15 15 13 16 21 21 21 22 24 23 20 17
15 15 16 16 16 17 18 18 18 18 17 16 16 16 16 16 16 16 17 16 15 14 15 14 14 15 13 16 18 14 14 15 15 15 10 9 10 9 7 6 5 5 5 5 3 3 5 13 13 9 4 3 4 5 6 6 3 2 2 1 3 2 5 8 5 1 1 5 4 6 2 6 9 8 6 15 18 19 16 17 20 20 21 22 24 22 19 19
15 16 16 16 16 16 17 17 18 18 17 17 16 16 17 16 16 16 16 16 15 14 15 14 13 13 14 20 19 12 9 8 9 10 13 15 13 12 9 8 6 5 5 4 2 1 2 12 13 6 5 5 4 4 4 4 3 2 1 3 3 1 4 10 7 1 1 5 1 7 2 6 8 7 7 17 18 20 18 19 20 19 22 23 22 22 19 19
16 16 16 16 16 16 17 17 18 18 17 16 15 15 17 16 16 16 15 15 14 14 13 11 10 8 10 13 8 3 4 5 3 1 10 17 16 13 9 9 8 5 5 3 3 2 5 8 9 5 5 4 1 2 2 4 4 3 1 2 3 1 2 6 6 1 1 2 2 2 1 4 6 5 6 17 19 19 15 18 20 19 23 24 23 23 21 21
15 15 15 16 16 16 17 17 18 18 17 15 14 14 16 16 15 14 12 11 11 11 10 8 5 6 9 9 6 4 2 4 5 4 2 10 18 17 11 10 9 6 5 3 3 4 5 6 5 4 3 0 2 3 2 2 3 4 2 1 3 3 2 3 5 5 4 3 4 3 1 5 8 5 5 16 19 18 13 16 20 20 23 25 24 24 23 24
14 15 15 16 16 17 17 17 17 18 17 15 13 14 14 13 11 9 7 6 6 5 6 7 3 2 9 10 7 4 3 1 6 4 4 5 14 19 16 12 9 7 4 3 3 5 7 5 3 1 1 2 2 4 3 4 3 2 1 1 3 3 2 3 4 5 7 6 4 4 2 7 10 5 6 15 19 18 12 16 19 20 24 25 25 26 25 26
15 15 16 16 16 16 16 17 17 17 16 13 12 13 10 9 8 4 2 2 3 3 3 6 7 3 5 5 5 5 6 9 11 8 6 3 11 18 18 13 8 6 3 3 3 6 7 2 3 2 2 2 4 5 6 7 6 5 4 4 3 4 4 4 5 5 3 5 6 5 4 6 9 7 6 15 21 16 11 16 18 20 25 25 24 26 27 28
15 16 16 16 15 15 15 16 16 16 15 11 9 9 7 7 6 2 4 10 12 11 11 13 14 16 17 14 12 12 12 12 10 5 1 2 11 17 17 13 7 4 3 4 3 4 7 4 2 4 5 5 7 7 7 6 5 4 3 3 4 5 6 2 3 6 2 1 7 6 5 6 8 8 7 15 19 11 11 15 17 22 27 27 26 27 27 28
16 16 16 15 14 14 14 15 15 14 14 11 8 7 5 5 4 3 9 14 17 17 19 22 22 25 29 26 22 20 17 13 10 8 5 4 10 13 13 10 5 2 3 3 3 2 5 5 5 6 8 7 6 6 6 5 3 1 2 3 4 5 6 4 4 7 3 3 6 4 2 7 8 7 7 11 13 10 15 18 18 24 27 27 27 27 27 28
15 15 15 14 13 13 14 14 14 13 12 9 7 5 2 3 2 5 8 10 19 21 19 22 23 27 33 31 28 23 14 10 13 13 8 8 12 12 9 7 5 3 2 3 3 1 1 3 6 7 8 6 5 5 6 4 3 2 2 2 5 4 4 6 4 5 1 4 5 4 2 7 8 7 6 6 9 13 21 27 28 31 29 27 28 27 27 29
14 14 14 13 13 13 13 13 14 13 11 7 5 3 0 3 3 6 7 8 17 20 17 20 22 28 33 30 26 19 12 10 13 15 10 12 15 15 11 7 5 4 2 3 5 3 2 4 6 7 7 7 4 4 7 4 1 2 3 3 5 3 1 4 5 4 2 2 5 5 4 6 6 6 5 4 7 9 13 25 29 33 34 33 32 31 30 31
14 14 14 13 13 12 12 13 13 10 7 4 2 1 2 5 4 8 7 6 10 11 11 14 16 24 28 22 16 16 17 15 13 14 13 15 17 14 10 6 5 4 4 5 7 5 5 6 3 6 6 7 4 3 6 4 2 3 5 6 4 3 4 6 4 5 5 4 3 2 4 5 5 6 6 6 8 6 6 17 21 26 31 29 27 28 29 30
14 14 14 14 13 11 11 11 8 6 5 2 1 2 3 5 6 8 5 2 6 6 6 7 9 14 16 10 10 15 14 13 17 17 14 17 18 11 7 7 6 4 7 6 6 4 7 6 4 6 3 5 5 3 4 6 3 4 5 9 8 7 8 8 3 4 5 5 3 1 3 5 5 5 5 6 6 4 3 10 17 23 24 22 23 26 28 29
14 14 13 13 12 11 9 6 4 6 5 1 2 3 3 4 6 7 2 3 4 5 2 2 4 3 3 7 13 13 4 7 18 20 15 16 19 13 6 5 3 4 7 5 3 3 3 4 7 6 4 5 5 4 5 7 4 3 5 10 11 9 8 8 3 2 0 3 3 3 2 4 5 4 5 6 4 5 4 5 12 19 21 22 23 24 26 28
15 15 13 12 11 10 8 5 5 7 2 3 3 3 3 5 4 4 2 4 4 4 0 1 2 4 3 7 16 14 2 3 8 17 22 18 19 17 8 3 2 2 4 4 1 3 2 5 5 5 5 5 4 4 6 8 7 3 6 9 9 8 7 7 4 3 3 3 4 4 4 2 4 3 4 5 3 4 5 6 10 14 18 19 18 18 22 26
14 15 13 11 10 10 9 6 6 5 1 4 4 4 5 4 3 1 3 3 3 2 1 0 1 5 4 7 20 13 1 1 3 9 24 22 17 15 7 6 7 4 5 6 3 4 3 6 6 6 5 3 5 5 7 9 5 6 6 7 7 7 7 5 5 4 2 2 5 5 2 1 4 4 3 4 3 5 6 8 9 12 13 14 13 15 20 24
14 15 13 10 9 10 9 7 6 4 3 5 5 5 5 3 1 2 4 0 2 2 4 2 3 5 3 7 16 11 5 2 2 4 18 21 17 11 5 9 8 5 5 5 5 5 2 5 8 8 5 5 7 6 9 12 6 4 5 5 3 3 3 3 5 4 1 1 6 6 2 2 5 4 2 2 3 5 6 6 6 9 10 11 13 16 21 23
13 14 13 11 9 9 8 8 7 3 3 5 5 5 4 3 3 4 1 3 2 4 6 2 2 4 2 4 5 9 5 5 4 7 14 13 14 10 4 7 6 5 2 2 3 5 2 1 4 6 6 7 6 5 9 14 8 3 5 4 5 5 4 3 2 3 2 3 7 5 3 3 3 5 3 2 3 5 5 4 5 8 10 11 15 20 23 21
13 12 12 12 10 9 8 7 4 2 3 4 4 4 5 2 4 4 2 4 2 4 6 3 2 4 2 2 4 4 3 4 2 8 9 5 7 6 3 3 3 4 1 3 3 4 3 1 1 5 10 7 4 3 5 8 5 2 3 4 3 2 3 4 4 3 2 6 7 3 3 6 3 4 3 4 5 5 5 6 6 5 7 11 16 19 19 17
11 11 11 11 10 8 7 5 4 4 4 3 3 5 6 2 1 2 3 4 2 2 5 3 3 6 6 4 4 4 3 2 2 5 5 4 5 5 3 4 4 2 2 4 3 4 3 4 3 4 8 8 5 2 3 1 2 4 3 4 3 1 2 2 3 0 2 7 5 1 3 4 3 4 4 7 8 7 7 8 6 3 5 8 9 10 9 7
10 10 11 10 8 5 4 5 6 5 5 4 3 4 5 3 2 4 3 3 1 2 4 4 6 9 7 4 2 4 2 2 3 2 2 4 5 5 3 3 6 5 1 3 2 2 3 5 3 2 4 7 9 4 2 1 3 6 5 5 4 2 2 1 3 1 3 5 3 1 1 2 2 2 4 7 9 9 8 8 5 3 5 5 5 6 5 6
9 9 8 5 3 2 3 5 5 5 6 5 3 5 5 2 4 3 2 2 3 4 4 4 7 8 4 3 3 1 1 1 2 4 2 3 4 4 3 2 4 5 3 2 2 3 2 4 3 4 2 4 8 7 6 4 4 5 4 5 5 4 4 3 4 3 3 4 2 2 1 2 2 1 5 5 7 11 6 5 8 8 10 9 7 8 7 3
7 6 3 3 2 1 4 5 3 5 8 6 4 5 4 4 3 0 1 3 3 4 6 6 4 4 4 3 4 2 1 1 1 5 3 3 4 5 4 4 4 4 4 3 2 2 3 4 7 4 1 4 5 5 5 6 3 2 2 5 3 5 5 2 3 4 2 1 1 2 1 2 3 3 5 3 7 13 12 11 13 13 12 12 10 10 8 3
4 3 3 5 2 4 5 1 4 7 8 5 5 2 4 3 1 2 1 2 2 3 7 6 3 3 4 4 3 5 3 1 2 3 1 2 3 4 3 3 4 5 5 5 3 1 2 4 7 4 2 4 6 4 5 6 4 1 2 4 3 4 7 4 2 1 3 2 1 1 1 4 2 2 5 6 8 9 10 9 10 12 14 15 13 11 9 2
2 0 6 5 3 5 6 5 6 8 7 5 4 2 4 2 3 3 1 2 3 3 3 3 2 1 2 3 3 5 5 1 1 1 1 1 1 3 3 2 4 6 7 5 3 3 3 3 6 2 4 6 3 3 2 2 5 4 3 5 2 2 4 4 2 3 4 2 3 2 1 3 1 1 4 7 7 7 7 7 6 8 12 15 14 11 8 6
2 5 6 5 4 5 7 7 6 7 6 4 2 2 2 1 3 3 2 3 2 2 2 1 2 1 2 2 4 5 4 2 2 1 2 1 1 3 3 2 2 5 9 7 2 2 3 2 7 3 4 6 4 2 2 4 2 4 4 4 4 2 1 1 2 1 1 2 3 3 2 2 3 1 4 6 5 5 5 6 7 7 10 14 15 13 11 9
5 6 5 5 5 6 7 6 5 5 4 3 1 2 2 3 4 4 5 4 1 1 0 3 2 2 2 2 3 4 4 1 1 0 2 1 2 2 1 2 2 1 5 9 5 1 2 1 5 4 3 3 5 2 1 3 2 3 3 2 2 3 4 2 2 3 3 3 1 2 3 2 3 2 4 6 6 6 4 5 6 7 10 13 15 13 9 8
6 4 4 6 6 5 5 4 4 4 3 2 3 2 2 3 4 6 9 6 2 1 1 3 2 2 3 3 3 3 2 1 2 1 1 1 1 1 1 2 2 1 2 6 5 1 2 1 4 5 5 3 2 1 2 4 2 2 3 2 0 2 2 2 1 2 3 4 3 1 1 4 4 1 4 6 6 5 3 4 6 8 11 13 13 12 9 9
7 4 3 6 7 5 3 2 2 3 2 1 2 2 2 2 3 6 10 7 4 5 4 4 3 3 3 3 3 3 1 1 1 1 1 1 1 1 2 2 1 1 2 5 3 2 2 2 3 3 4 2 4 5 3 4 5 4 4 5 4 3 4 3 0 1 2 3 4 4 2 5 4 1 3 4 3 3 3 6 7 8 10 10 10 9 10 11
7 3 3 7 8 6 1 2 1 2 2 2 2 3 3 3 2 3 6 5 4 4 4 3 3 4 4 3 4 3 1 1 1 1 1 1 2 1 3 5 3 1 2 3 1 2 3 3 2 1 2 4 7 7 3 3 4 3 2 3 3 3 5 5 3 3 2 2 2 3 1 4 3 1 2 2 4 5 7 9 9 10 10 8 7 6 8 10
7 5 5 7 10 7 1 2 3 2 1 2 3 3 3 3 2 2 3 2 2 2 1 1 3 3 3 3 2 2 1 1 1 1 1 2 2 2 6 2 2 3 2 2 1 1 1 3 3 2 4 4 6 6 3 2 3 3 2 2 2 1 3 5 5 3 4 3 2 3 0 4 2 3 4 6 8 9 10 11 12 12 11 11 10 8 9 10
9 8 6 6 10 7 1 0 2 2 2 3 3 3 4 2 2 2 2 2 1 1 1 2 2 1 1 2 0 1 2 1 2 2 1 1 1 5 6 1 4 2 1 2 2 2 1 1 3 2 3 4 5 5 5 5 4 2 2 3 3 2 4 4 2 3 3 4 4 5 2 4 0 4 5 6 9 10 12 13 14 14 13 14 15 15 15 14
9 6 4 5 8 7 2 1 2 1 2 2 3 4 5 3 3 3 3 3 2 0 1 3 4 2 2 2 2 2 2 1 1 2 3 2 2 5 8 4 3 3 2 2 3 4 2 1 3 4 3 3 2 2 3 3 3 1 2 5 6 4 3 2 3 4 3 4 3 5 4 3 3 6 6 6 8 11 13 16 17 16 16 17 19 19 18 17
6 3 2 2 5 6 3 1 2 2 1 1 1 3 3 2 5 5 2 2 2 3 1 3 5 3 2 3 3 3 3 2 1 2 3 3 3 3 7 8 7 6 6 8 7 5 3 3 2 5 5 5 5 5 5 2 1 2 5 7 7 5 4 2 4 3 5 4 2 2 4 5 6 7 7 7 9 10 11 14 16 17 18 18 20 22 21 21
3 1 2 2 1 1 2 2 2 2 1 1 1 2 3 2 4 4 2 1 4 6 1 1 4 4 2 4 2 2 4 4 3 4 2 4 3 4 7 6 10 8 6 7 7 4 4 3 2 5 4 2 3 3 4 0 3 2 4 7 8 8 6 4 4 3 5 6 1 4 5 7 6 6 6 7 9 9 9 12 14 16 18 18 21 24 25 24
2 2 3 4 1 0 2 2 2 3 2 1 1 1 3 3 3 2 3 4 5 7 4 2 5 5 4 4 0 1 5 4 4 4 3 3 2 4 7 4 8 11 7 4 6 4 5 2 0 3 4 2 3 4 3 3 5 4 6 7 8 9 8 5 3 1 4 5 5 6 8 6 4 5 7 7 8 10 11 13 16 18 19 21 24 27 27 26
5 5 3 4 3 2 2 0 1 4 3 1 1 1 1 3 4 2 2 3 5 6 4 2 6 7 6 4 2 2 2 2 2 4 3 3 2 1 3 3 5 10 9 4 3 3 4 2 1 2 3 4 6 6 5 4 4 4 7 8 7 7 8 8 4 3 4 5 7 10 10 6 4 4 6 8 11 16 18 19 20 21 22 25 29 30 28 28
6 5 4 5 5 4 3 1 2 4 2 2 2 2 0 1 3 3 2 1 1 4 4 2 7 7 4 4 4 3 1 2 2 1 2 4 3 2 2 2 3 7 6 3 2 3 3 2 1 3 3 4 7 6 6 5 6 6 8 10 9 8 8 7 5 5 5 6 9 11 9 5 4 5 8 9 13 19 21 19 20 21 22 25 28 29 28 27
6 6 7 7 4 5 4 2 2 3 2 3 1 1 1 1 3 3 3 2 3 1 3 4 7 6 3 4 4 2 1 2 4 5 4 4 5 3 2 2 4 5 5 2 2 3 3 2 1 3 3 2 5 5 6 4 5 6 8 10 10 7 5 4 3 3 2 4 10 9 5 2 3 6 9 10 13 18 18 17 19 20 21 23 24 26 28 28
8 8 8 7 3 4 3 2 3 3 1 1 2 2 2 3 4 2 1 2 1 1 4 4 4 4 3 3 3 5 9 9 10 11 9 10 11 8 7 8 6 3 1 1 2 2 3 4 2 2 2 1 3 4 4 3 3 2 4 5 6 4 1 2 3 5 4 3 6 5 4 6 6 7 9 10 11 14 16 16 17 18 21 23 23 23 27 29
Wind_Direction
330 331 333 332 331 329 327 328 328 328 328 327 328 329 328 326 323 322 320 321 318 315 312 306 305 303 302 303 305 308 311 314 313 311 307 309 295 264 255 250 229 221 218 208 199 195 189 183 184 183 179 166 161 168 161 150 150 153 120 123 223 211 195 187 186 195 221 299 319 322 340 351 320 338 346 14 78 86 121 143 156 191 231 213 207 182 173 172
329 329 328 328 326 324 325 324 324 325 325 323 324 324 325 327 327 326 323 323 322 322 321 315 311 305 303 305 306 310 314 317 316 314 314 324 315 278 250 236 227 222 217 212 207 202 197 193 187 182 177 163 157 167 172 175 166 163 109 153 232 203 205 196 189 247 285 294 305 310 327 337 316 326 327 311 11 360 31 104 146 176 177 186 193 176 176 176
327 326 324 324 323 323 323 321 322 322 322 322 321 322 323 325 328 329 327 324 323 325 324 322 316 310 308 305 307 313 318 321 321 332 65 46 4 320 260 229 226 226 215 215 213 208 207 202 194 184 172 160 158 168 178 183 186 200 131 194 243 200 223 245 248 272 287 292 299 310 320 323 320 326 321 283 197 293 251 189 149 161 167 174 181 177 180 179
324 323 321 322 321 322 321 320 320 319 320 319 319 321 320 322 326 327 328 325 324 325 325 323 318 316 314 309 311 315 322 327 338 89 82 14 8 344 299 220 217 204 194 204 205 203 205 197 193 183 170 158 160 169 181 183 183 196 170 212 228 160 258 274 284 289 299 302 294 307 317 317 322 330 321 303 194 280 241 219 201 187 182 175 176 180 182 180
321 321 320 320 320 320 319 319 318 317 317 316 317 318 318 320 321 324 326 324 324 325 325 323 319 319 316 314 314 316 330 340 97 80 355 333 353 342 354 193 197 180 185 199 200 198 196 185 178 172 167 152 158 168 190 186 175 171 227 245 250 260 290 289 301 302 300 300 299 309 316 307 313 317 300 279 229 250 256 236 227 209 193 182 179 181 183 182
319 320 319 319 318 318 317 317 317 316 315 315 315 315 316 316 317 321 321 321 322 323 324 324 322 319 317 318 315 318 328 285 229 317 294 303 338 351 42 166 180 181 189 196 200 194 185 173 168 164 155 130 161 175 185 187 188 224 258 259 262 261 264 284 294 297 295 295 299 296 295 301 308 311 298 268 247 256 272 270 242 211 195 189 181 179 179 175
317 317 318 318 318 317 317 316 315 315 315 315 313 313 314 314 315 315 315 318 318 320 323 323 323 318 320 320 316 317 291 272 296 285 265 286 330 72 94 163 178 193 198 202 203 190 180 170 168 161 134 117 178 190 190 184 194 225 262 275 275 268 260 281 289 291 294 288 287 292 294 297 291 302 304 274 270 267 264 281 247 198 184 179 169 164 161 144
317 317 319 319 318 318 316 315 314 315 316 315 314 314 312 311 311 310 311 312 313 317 319 321 323 317 321 323 321 317 288 289 310 261 258 257 188 114 115 162 180 202 208 215 212 193 181 171 170 164 144 179 171 181 200 194 217 222 250 281 285 278 269 281 290 289 292 287 290 299 286 285 285 287 287 277 283 272 257 268 225 186 173 164 156 159 162 159
319 320 321 322 320 318 315 314 314 314 315 315 315 314 311 310 308 307 306 308 311 314 315 318 318 315 318 318 323 317 294 298 309 266 264 227 187 147 158 171 190 216 218 218 215 200 188 182 179 168 168 194 164 177 179 175 244 224 236 264 271 272 277 285 290 289 292 290 291 302 280 289 311 300 274 277 278 263 251 239 201 172 159 155 157 171 173 164
319 319 320 319 318 317 315 314 313 313 314 314 314 313 310 308 307 306 304 305 308 308 312 312 312 313 309 308 326 322 297 299 290 288 259 196 175 149 182 195 237 246 239 226 217 210 203 197 185 164 143 169 167 198 159 173 241 249 247 258 263 269 281 284 283 287 291 292 283 260 270 290 349 291 261 272 264 246 223 191 177 154 150 160 166 178 175 149
316 316 315 314 313 312 312 312 311 311 312 311 311 309 308 308 308 306 303 303 304 307 309 307 309 307 302 296 268 253 292 291 277 285 224 175 151 127 182 214 259 263 257 251 241 225 214 203 182 167 158 167 172 208 183 219 250 271 276 274 278 282 288 274 264 280 285 290 278 242 257 298 76 200 250 253 233 217 196 166 154 145 152 166 174 183 176 152
314 313 312 312 311 309 309 309 309 309 309 309 308 307 307 308 307 304 303 302 303 306 304 305 306 302 300 286 268 267 292 283 273 267 234 190 172 166 195 222 248 253 263 269 274 249 215 195 180 182 186 157 169 359 258 279 277 275 282 281 296 323 315 274 252 272 260 261 278 234 291 314 234 223 246 224 198 195 180 153 145 148 157 166 178 188 181 173
312 311 311 311 309 308 308 307 308 308 307 306 306 307 307 307 307 303 300 300 303 304 300 301 300 300 298 278 274 285 285 277 271 257 233 209 210 212 223 235 247 247 262 271 282 272 215 190 187 196 186 123 202 323 310 312 312 279 277 211 314 349 322 286 271 288 257 252 262 176 281 293 261 256 223 188 189 184 166 148 145 146 156 168 181 189 185 188
311 310 309 309 309 309 308 308 308 308 306 306 305 306 307 307 305 301 298 298 301 299 296 295 294 297 287 276 288 292 279 275 267 252 228 213 214 218 230 228 235 239 254 273 277 304 216 192 194 204 218 237 272 312 322 327 342 298 295 301 350 358 281 299 315 314 348 280 237 156 215 269 271 289 195 186 190 182 168 152 150 147 155 171 184 189 188 189
310 310 309 309 310 309 309 310 308 307 305 305 305 307 308 307 305 301 296 295 295 293 292 291 290 293 287 288 295 292 286 288 272 247 221 215 214 221 227 219 231 241 251 273 248 4 119 189 201 212 238 264 297 326 339 349 2 10 304 298 343 169 263 307 308 181 194 292 116 136 222 272 273 298 192 185 186 183 171 156 156 153 159 173 185 187 188 189
309 309 308 309 311 312 313 311 309 307 304 304 308 310 310 309 305 298 291 289 288 285 285 286 286 290 293 296 297 295 334 354 18 202 217 214 211 218 222 223 234 239 241 254 209 133 105 174 206 228 249 271 284 100 24 353 339 3 67 262 301 267 282 318 314 2 127 283 7 96 246 276 286 322 195 186 186 188 171 157 160 155 165 180 189 190 190 193
307 307 307 309 312 314 314 312 310 306 304 306 310 313 315 313 307 299 293 288 280 275 274 273 281 289 271 262 267 279 9 51 39 34 266 221 214 216 216 220 225 227 227 224 216 171 144 174 194 225 248 261 124 114 54 307 293 326 11 253 261 252 258 304 301 331 26 43 353 350 44 252 280 337 189 191 192 195 176 159 162 159 171 185 192 195 196 199
305 304 305 308 311 314 313 311 309 305 305 311 316 322 322 318 316 310 303 292 268 260 264 244 203 318 272 248 245 238 169 347 320 320 325 264 217 213 214 220 225 222 203 172 209 174 171 193 145 159 314 69 118 117 157 222 202 215 225 223 278 286 252 235 259 312 6 18 348 343 330 262 279 312 205 200 202 204 181 158 163 165 175 186 193 197 199 202
301 301 303 307 311 313 311 310 308 305 306 311 320 330 330 326 330 335 353 320 224 200 264 227 190 208 267 241 218 232 257 290 304 298 294 260 208 210 211 215 222 209 158 118 187 172 166 150 87 169 238 159 181 162 181 199 163 160 177 175 221 274 262 219 235 276 350 356 319 291 264 260 275 285 239 211 210 205 163 155 165 167 176 186 193 199 201 203
300 300 302 306 310 311 311 311 308 307 310 313 327 342 352 351 351 6 321 296 264 254 266 256 241 249 261 262 256 270 284 289 294 280 230 176 198 204 204 205 204 183 159 146 179 173 155 156 196 200 183 173 204 196 179 175 143 130 162 191 219 249 267 239 244 263 194 31 288 260 247 262 264 268 243 214 212 197 150 160 170 171 179 188 194 201 202 204
302 301 303 307 309 311 313 312 308 309 312 315 337 5 31 22 19 326 315 300 282 272 266 263 258 257 261 262 263 274 288 294 276 223 190 209 197 192 197 192 163 180 223 160 143 122 134 182 220 191 181 180 189 180 155 147 138 130 207 253 264 241 261 264 246 260 198 151 265 267 276 274 265 264 247 213 206 195 176 172 175 180 185 191 196 199 200 204
305 303 305 307 308 313 313 311 310 311 313 314 339 24 61 20 3 308 311 297 291 289 274 265 256 254 259 259 260 265 274 284 269 247 230 213 198 190 184 168 152 193 241 104 116 100 118 224 214 187 182 152 109 118 129 139 157 158 183 246 266 252 285 289 272 279 160 146 258 300 313 275 280 281 265 222 214 216 196 185 185 187 187 193 197 196 197 202
306 304 306 307 310 314 311 311 311 310 311 310 336 40 247 309 310 300 296 274 290 294 275 260 249 249 254 254 253 247 235 239 253 258 238 193 192 191 174 158 161 166 133 136 162 164 207 240 211 182 161 132 110 118 119 114 148 169 182 215 259 266 320 285 291 319 321 224 255 288 304 283 306 320 305 292 285 274 214 195 193 192 193 197 198 195 195 198
306 305 307 309 311 313 310 311 313 312 309 314 354 84 268 296 297 308 301 260 284 293 274 263 253 252 252 254 251 228 221 227 230 243 227 189 180 183 182 165 139 156 189 179 168 179 225 236 176 124 134 157 179 158 131 148 260 248 213 208 234 249 219 228 278 329 325 311 246 250 328 305 332 349 328 327 324 315 201 191 196 200 202 202 199 198 198 199
308 307 310 313 311 311 311 308 312 320 314 337 47 220 266 294 302 317 317 284 291 284 281 270 251 255 252 244 225 209 214 227 224 224 211 193 184 170 175 169 145 191 207 161 147 200 249 237 157 109 111 160 174 207 182 176 221 282 235 207 210 225 231 237 278 360 356 334 289 76 15 299 318 350 321 329 342 326 202 188 195 201 204 202 199 198 199 200
307 308 314 317 311 309 309 303 312 323 320 289 198 219 263 288 304 318 338 46 319 272 303 274 244 292 259 202 191 183 192 250 234 222 203 199 197 176 152 164 158 202 188 147 144 214 253 201 167 154 149 148 162 236 226 171 164 276 240 202 205 216 231 245 240 99 79 268 290 46 104 263 307 351 323 321 329 313 288 222 202 200 202 202 202 199 196 199
306 308 316 318 312 309 308 302 307 318 343 150 200 217 248 275 301 319 8 33 320 260 352 203 244 5 336 209 176 159 146 256 219 213 202 195 190 182 176 173 159 190 159 120 184 237 169 152 157 151 144 143 164 238 222 159 140 247 229 179 184 204 220 231 190 166 235 262 318 18 117 227 295 301 296 299 300 304 273 233 211 206 206 204 204 198 195 199
306 308 316 319 311 307 310 309 308 315 168 182 217 217 233 264 286 358 78 40 285 254 41 118 4 358 346 192 180 175 292 178 133 212 202 187 179 179 184 192 177 182 164 136 197 239 150 159 173 152 141 167 197 210 184 156 162 245 215 163 169 185 196 191 155 190 254 357 310 309 114 181 280 270 299 319 300 284 254 233 217 211 210 205 199 192 195 202
306 309 314 317 306 301 306 305 307 309 215 211 212 215 227 228 216 90 83 31 255 16 9 30 32 348 37 151 194 221 308 338 30 197 186 180 183 179 185 206 178 151 180 170 200 227 181 186 182 152 152 203 214 203 165 168 204 229 166 137 111 97 117 131 136 167 86 39 262 265 171 185 279 279 287 318 290 269 253 239 222 213 205 195 188 189 196 201
305 309 311 311 305 298 298 297 299 292 210 206 209 213 207 153 106 75 75 253 261 358 353 8 20 339 65 109 237 253 275 313 3 137 162 174 185 177 156 192 159 110 192 270 230 234 301 200 165 155 190 205 198 193 179 186 197 137 116 102 64 42 42 63 81 102 104 260 259 255 187 170 274 284 245 210 258 276 274 267 235 216 204 191 187 192 198 199
305 308 306 307 305 297 296 296 288 250 194 198 219 195 160 121 74 95 197 258 295 341 351 358 354 355 353 243 261 247 231 289 351 137 152 157 170 167 106 142 139 82 12 312 290 296 340 53 178 215 221 205 162 196 215 208 198 108 81 90 83 353 17 32 2 50 141 251 264 263 166 146 182 272 278 274 279 283 267 255 248 230 210 197 192 196 198 197
308 305 301 302 300 295 295 285 259 235 201 188 211 174 145 90 31 173 246 312 352 332 340 335 323 336 319 277 231 218 193 221 215 151 156 143 149 181 169 165 169 97 330 253 254 324 303 227 244 253 233 205 169 233 295 300 161 131 105 98 104 325 29 18 304 226 216 248 256 242 140 149 202 241 282 301 299 291 265 250 252 248 216 203 194 191 187 179
310 302 299 296 291 288 280 275 267 233 197 185 177 141 107 83 219 228 277 324 337 315 321 311 313 314 308 323 294 230 189 200 205 146 139 133 145 195 211 183 166 145 181 210 191 302 297 295 285 261 258 205 173 190 250 225 165 157 151 142 144 121 90 291 270 251 263 257 267 338 148 205 252 261 303 306 309 307 279 246 226 193 179 174 156 140 108 80
310 303 299 281 266 274 268 280 272 208 187 182 144 101 94 138 227 247 303 282 276 315 326 309 312 314 315 340 322 273 138 259 185 132 118 112 142 200 235 252 180 143 124 155 164 182 187 316 252 192 246 182 173 200 201 163 149 171 165 139 146 153 149 201 221 204 255 259 290 328 141 172 195 291 306 297 336 359 21 125 132 132 147 146 123 107 96 95
308 304 286 182 162 342 311 289 248 185 181 170 104 85 132 199 245 244 254 274 298 323 317 315 328 345 341 316 310 346 62 266 99 112 136 148 164 195 199 212 201 137 119 161 220 175 155 255 253 236 230 157 182 225 163 118 120 209 133 110 153 182 154 150 189 172 189 215 314 323 244 213 212 284 317 343 19 21 40 78 95 101 116 114 101 115 133 195
314 311 163 155 120 15 2 357 159 165 175 152 86 95 191 214 215 154 209 296 307 312 319 330 15 42 341 314 324 349 344 221 94 89 143 175 187 197 190 205 198 166 149 161 210 178 129 257 276 313 305 206 202 209 159 154 185 166 127 171 215 173 127 115 191 90 74 143 248 344 303 310 317 308 330 10 30 27 31 45 69 85 96 94 95 129 151 169
334 215 155 143 82 47 42 62 131 156 164 123 94 188 221 223 185 185 258 310 282 297 1 357 337 23 348 321 309 323 327 324 57 96 187 258 227 192 189 190 177 189 189 171 206 202 148 257 280 293 273 273 240 166 134 140 145 126 179 203 184 87 94 108 159 14 47 170 267 342 249 292 314 165 327 359 17 17 25 33 47 73 90 90 88 101 103 97
106 146 153 139 99 73 56 64 114 144 139 94 81 225 224 212 202 216 290 318 293 330 62 182 268 347 38 328 286 300 319 317 330 17 165 240 250 177 170 178 171 213 213 185 194 240 148 257 288 246 229 293 350 86 18 357 104 140 173 163 110 124 188 104 137 136 114 193 293 324 299 256 194 202 324 342 350 343 11 42 40 46 77 85 86 84 71 79
125 129 134 139 122 88 73 75 103 125 108 90 194 237 217 238 253 271 296 306 258 97 63 219 236 342 344 267 249 289 322 285 239 211 147 186 233 181 158 182 159 254 212 173 165 239 117 194 283 274 243 308 1 43 256 296 337 63 115 120 72 132 167 159 148 155 160 170 240 311 334 290 224 245 312 313 326 325 343 54 55 53 72 83 87 90 80 82
146 117 105 142 140 116 101 79 83 97 90 137 201 218 224 247 271 289 297 293 226 208 238 211 213 289 289 277 249 258 311 127 167 200 203 191 203 228 267 215 159 83 123 135 134 119 71 117 247 287 325 331 334 314 206 197 175 98 130 171 99 86 134 147 94 95 131 148 167 172 299 271 249 278 306 307 325 321 325 63 65 63 77 91 92 91 93 92
147 102 100 155 165 155 130 41 48 86 92 161 202 222 254 266 271 289 296 285 236 236 235 210 212 235 248 285 273 245 310 50 144 169 217 240 113 170 308 349 120 158 87 86 96 140 124 141 197 293 342 318 251 248 207 188 184 166 175 189 174 136 125 126 251 314 102 123 159 159 198 268 267 310 314 320 352 354 33 71 71 62 74 92 95 90 95 97
138 97 120 166 181 182 158 3 8 88 126 181 246 250 268 292 276 278 296 285 243 240 238 218 222 227 223 239 255 257 354 8 249 172 192 198 135 186 308 355 25 44 111 106 204 200 144 109 115 259 261 245 259 258 221 182 170 151 168 177 148 128 122 132 189 216 108 94 141 120 130 267 272 56 51 58 74 70 72 84 82 71 69 73 76 86 98 102
117 105 134 167 184 186 130 354 339 360 215 260 300 275 272 291 268 281 309 301 270 267 281 260 235 228 226 231 259 300 343 21 330 317 215 174 121 320 304 315 63 38 71 104 275 241 119 81 72 316 295 301 300 303 337 54 87 71 9 36 81 176 144 142 173 172 134 156 145 86 81 264 290 62 83 91 92 84 81 89 88 78 72 72 75 83 89 95
107 99 114 156 182 189 166 302 277 310 294 317 348 327 312 283 233 285 308 293 303 327 324 287 259 246 282 274 294 309 303 45 34 360 6 141 67 1 349 181 155 92 63 212 219 203 206 86 97 66 357 341 336 339 347 359 30 53 339 341 351 22 84 116 130 82 114 189 160 126 208 254 211 86 86 89 92 84 72 74 80 76 72 78 85 90 92 96
111 93 94 136 178 203 239 198 170 204 292 346 4 335 330 303 275 304 286 267 285 278 242 283 286 285 301 340 24 336 318 97 96 11 23 358 319 8 15 34 131 123 122 137 131 145 152 116 123 125 152 193 222 260 265 294 326 339 342 352 2 26 50 137 128 94 153 199 134 135 195 230 140 113 102 93 87 79 66 61 65 68 71 79 87 93 97 97
123 107 124 145 182 202 214 141 116 134 208 52 28 330 343 317 308 324 305 251 320 340 253 276 314 321 339 14 25 343 336 357 40 61 37 342 313 335 4 36 69 82 93 77 67 99 105 56 87 117 141 182 198 223 243 260 25 341 338 351 357 346 339 80 113 144 183 152 95 210 191 151 141 131 114 94 75 71 65 57 58 62 65 73 83 91 96 96
125 134 159 149 192 191 105 53 66 109 177 132 108 327 332 309 308 340 15 359 347 351 337 217 10 19 343 351 19 337 339 351 19 48 22 333 337 314 330 41 58 42 71 68 37 68 99 52 53 86 88 182 211 247 274 16 93 63 2 356 354 346 354 69 115 168 154 127 138 237 175 137 133 116 91 80 76 76 68 58 59 64 67 72 79 85 89 92
125 149 145 134 166 226 77 30 35 84 87 108 113 343 338 343 349 1 341 335 353 6 19 2 4 13 331 315 139 350 349 3 11 23 11 345 350 310 320 23 45 28 45 55 22 71 111 86 16 80 63 39 23 7 11 90 113 86 49 24 5 360 12 53 97 121 119 136 176 174 145 120 92 76 69 73 86 89 82 77 77 77 78 81 82 81 81 84
118 123 126 126 128 120 106 59 75 85 66 10 12 11 345 355 360 332 279 336 353 357 26 6 326 341 338 329 102 90 15 46 13 346 356 352 321 264 335 359 19 23 40 54 26 66 100 75 68 95 67 27 13 10 26 75 106 69 42 32 19 18 31 47 51 39 74 112 133 126 111 80 50 67 78 88 97 95 90 87 84 83 85 86 85 83 80 81
129 130 137 127 101 54 36 42 94 88 39 355 14 359 285 343 345 313 275 84 19 331 10 6 313 324 344 3 61 91 137 135 138 275 333 351 331 353 32 352 336 5 25 48 19 28 78 112 137 85 66 360 356 4 12 51 95 73 37 23 18 26 34 34 35 39 53 87 105 103 96 73 58 82 85 88 94 93 87 83 82 85 87 86 84 84 84 84
136 141 143 130 88 3 358 18 71 90 38 7 21 304 294 266 299 303 282 205 163 270 323 316 313 329 10 16 38 92 252 207 191 224 241 249 265 296 1 329 332 354 7 29 12 16 71 116 152 75 82 325 344 357 347 19 79 69 36 14 4 15 34 20 7 356 349 130 122 111 109 121 112 97 83 73 78 82 81 79 83 85 83 81 80 83 85 87
136 140 145 131 82 350 357 31 43 71 56 291 244 253 270 286 303 329 327 271 207 44 328 315 321 344 350 352 352 328 316 304 273 262 256 244 252 273 293 285 279 283 297 45 45 35 95 124 133 98 113 281 327 332 328 2 49 33 12 356 331 321 2 22 358 345 348 117 131 131 139 132 128 117 94 75 71 73 72 75 81 83 84 84 83 81 83 86